{"data":{"norad_id":58913,"epoch":"2026-09-22T13:28:03.899136Z","epoch_age_seconds":74185,"freshness":"FRESH","line1":"1 58913U 24023J   26265.56115624  .00001054  00000+0  15419-3 0  9990","line2":"2 58913  50.0030 263.1654 0021335  19.8738 340.3027 14.83458183143375","mean_motion":14.83458183,"eccentricity":0.0021335,"inclination_deg":50.003,"raan_deg":263.1654,"arg_perigee_deg":19.8738,"mean_anomaly_deg":340.3027,"bstar":0.00015419,"rev_number":14337,"period_min":97.070481426574,"perigee_km":603.50236782701,"apogee_km":633.35671726405,"semimajor_km":6996.5665425455,"source":"CELESTRAK","updated_at":"2026-09-23T09:00:19.071760Z"}}